[[{"header":{"parameterUnit":"m.s-1","parameterCategory":2,"la1":30.2991,"la2":30.254,"lo1":-89.0895,"lo2":-89.0444,"dx":0.0017,"dy":0.0017,"nx":28,"ny":28,"refTime":"2022-11-07T09:00:00:Z","depth":"0","parameterNumber":2,"parameterNumberName":"U-component_of_CURRENTS"},"data":[0,0,0,0,0,0,0,0,0,0,0,0,0,0,0,0,0,0,0,0,0,0,0,0,0,0,0,0,0,0,0,0,0,0,0,0,0,0,0,0,0,0,0,0,0,0,0,0,0,0,0,0,0,0,0,0,0,0,0.3654,0.3654,0,0.3658,0.3658,0.3658,0.3638,0.3637,0.3637,0.3637,0.3594,0.3593,0.3592,0,0,0,0,0,0,0,0,0,0,0,0,0,0.3531,0.3534,0.3654,0.3654,0.3654,0.3658,0.3658,0.3658,0.3638,0.3637,0.3637,0.3636,0.3594,0.3593,0.3592,0,0,0,0,0,0,0,0,0,0,0,0,0,0.3563,0.3535,0.3654,0.3647,0.3646,0.3658,0.3658,0.3658,0.3638,0.3637,0.3637,0.3636,0.3594,0.3593,0.3592,0.3596,0,0,0.3588,0.3588,0,0,0,0,0,0,0,0,0.3561,0.3567,0.3647,0.3647,0.3647,0.3649,0.3599,0.3635,0.3638,0.3638,0.3637,0.3636,0.361,0.3607,0.3607,0.3594,0.3592,0.3588,0.3587,0.3587,0.3587,0,0,0,0,0,0,0,0.3559,0.3566,0.3653,0.3648,0.3647,0.361,0.3615,0.3605,0.3624,0.3638,0.3637,0.3642,0.3609,0.3608,0.3605,0.3591,0.3588,0.3587,0.3586,0.3586,0.3605,0.3606,0,0,0,0,0,0,0.357,0.3565,0.3653,0.3653,0.3604,0.3613,0.3618,0.3647,0.3625,0.3623,0.3643,0.3641,0.361,0.3607,0.3604,0.3643,0.3587,0.3586,0.3585,0.3604,0.3605,0.3607,0,0,0,0,0,0,0.3568,0.3579,0.3653,0.3609,0.3616,0.3617,0.3648,0.3647,0.3648,0.363,0.3625,0.3645,0.361,0.3605,0.3605,0.3639,0.3585,0.3584,0.3602,0.3604,0.3606,0.3698,0,0,0,0,0,0,0.3564,0.3578,0.3593,0.3611,0.3619,0.3662,0.3649,0.3648,0.3653,0.3651,0.3631,0.3626,0.3609,0.3607,0.3604,0.3637,0.3583,0.3601,0.3603,0.3605,0.3693,0.3702,0.371,0,0,0,0,0,0.356,0.3574,0.3594,0.3604,0.3644,0.3663,0.3663,0.3658,0.3654,0.3657,0.3649,0.3627,0.362,0.3607,0.3603,0.3636,0.36,0.3602,0.3605,0.3689,0.37,0.371,0,0,0,0,0,0,0.3505,0.3575,0.3596,0.3626,0.3649,0.366,0.3664,0.3664,0.3661,0.366,0.3638,0.3634,0.3652,0.3627,0.3613,0.3648,0.3608,0.361,0.3673,0.3683,0.3692,0.3701,0.3582,0,0,0,0,0,0.3511,0.3551,0.3599,0.3618,0.3643,0.3659,0.3663,0.3666,0.367,0.3668,0.3662,0.3655,0.3661,0.3656,0.3654,0.3665,0.3664,0.3685,0.3694,0.3701,0.3706,0.3745,0.3758,0.3616,0.3616,0.3616,0,0,0.3488,0.3533,0.3551,0.361,0.3635,0.3666,0.366,0.3677,0.3696,0.3664,0.3687,0.3686,0.3671,0.3694,0.3699,0.3676,0.3742,0.3705,0.3711,0.3712,0.375,0.3764,0.3776,0.3617,0.3617,0.3617,0,0,0.3466,0.3521,0.3553,0.359,0.364,0.3659,0.367,0.3703,0.3717,0.3738,0.3731,0.3751,0.3746,0.3756,0.3756,0.3807,0.3791,0.3805,0.3852,0.3892,0.3904,0.3915,0.3937,0.3949,0.3805,0.3805,0.3805,0,0.3431,0.3495,0.3554,0.3598,0.3627,0.3664,0.3693,0.3719,0.3739,0.3766,0.3753,0.3796,0.378,0.3825,0.3842,0.3829,0.3841,0.3816,0.3905,0.3915,0.3925,0.3945,0.3958,0.381,0.3809,0.3809,0.3808,0,0.3446,0.3496,0.3519,0.3604,0.3638,0.3668,0.3729,0.3763,0.3789,0.3819,0.3879,0.3878,0.3903,0.3909,0.3887,0.3955,0.3938,0.3918,0.3882,0.3945,0.3962,0.3973,0.3816,0.3815,0.3813,0.3812,0,0,0.3361,0.3503,0.3508,0.3555,0.3649,0.3672,0.3738,0.3808,0.3847,0.3898,0.395,0.3989,0.401,0.4011,0.4006,0.4034,0.411,0.4006,0.4006,0.4035,0.4194,0.4079,0.408,0.4112,0.4114,0.4116,0.4181,0,0.335,0.3432,0.3507,0.3567,0.3618,0.3697,0.3749,0.3817,0.3875,0.3935,0.3994,0.4031,0.4045,0.4051,0.4101,0.4102,0.4143,0.4094,0.4122,0.4123,0.4019,0.409,0.3896,0.3929,0.4192,0.4194,0.4195,0,0.3336,0.3401,0.3466,0.3576,0.3605,0.364,0.374,0.3795,0.3908,0.3952,0.4043,0.408,0.416,0.4135,0.4235,0.4206,0.4214,0.4215,0.4217,0.4083,0.4028,0.3906,0.3939,0.3842,0.4212,0.421,0.4209,0,0.3249,0.3364,0.3415,0.3455,0.3583,0.3622,0.3685,0.3798,0.3856,0.3965,0.401,0.4126,0.4173,0.4229,0.4276,0.4254,0.436,0.4324,0.4238,0.423,0.4054,0.4025,0.3997,0.439,0.439,0.439,0.4389,0,0.3214,0.325,0.3378,0.3408,0.3458,0.3569,0.363,0.371,0.3826,0.3889,0.4015,0.407,0.42,0.4283,0.4304,0.4321,0.4401,0.4261,0.4246,0.4078,0.4052,0.3948,0.39,0.4392,0.4391,0.4391,0.4391,0,0.3121,0.3206,0.3265,0.339,0.3422,0.3459,0.3591,0.3636,0.3761,0.3843,0.3879,0.4056,0.4158,0.4275,0.4359,0.4341,0.4224,0.4339,0.4128,0.4085,0.3855,0.3818,0.365,0.3551,0.4233,0.423,0.4228,0,0.3089,0.3113,0.3223,0.325,0.3307,0.3383,0.3427,0.3572,0.3625,0.3814,0.3836,0.3996,0.4072,0.4191,0.4185,0.4217,0.4143,0.404,0.3947,0.3825,0.3777,0.3663,0.3586,0.3763,0.3757,0.3753,0.3749,0,0.3021,0.3055,0.3106,0.3158,0.3202,0.3262,0.3343,0.3382,0.3544,0.3611,0.3723,0.3805,0.3935,0.3889,0.3945,0.3937,0.3814,0.394,0.3877,0.3456,0.3267,0.3169,0.3742,0.3708,0.3712,0.3715,0.3717,0.3719,0.2955,0.2959,0.3014,0.3046,0.3093,0.3126,0.3114,0.3206,0.3263,0.3321,0.351,0.3531,0.36,0.3637,0.3619,0.347,0.3502,0.3351,0.3338,0.3252,0.3077,0.3547,0.345,0.3452,0.3455,0.3456,0.3458,0,0.2851,0.2862,0.2897,0.2913,0.2896,0.2976,0.3024,0.2979,0.2957,0.307,0.3122,0.3138,0.3091,0.3148,0.3065,0.2909,0.2802,0.2833,0.265,0.2622,0.3096,0.2996,0.2717,0.2717,0.2717,0.2717,0.2718,0.2718,0.2797,0.2765,0.2771,0.2696,0.2705,0.2629,0.2618,0.2583,0.2619,0.2583,0.2565,0.2637,0.2778,0.2745,0.2609,0.2542,0.2363,0.2201,0.2262,0.2619,0.2667,0.2713,0.261,0.2254,0.2254,0.1674,0.1669,0.1665]},{"header":{"parameterUnit":"m.s-1","parameterCategory":2,"la1":30.2991,"la2":30.254,"lo1":-89.0895,"lo2":-89.0444,"dx":0.0017,"dy":0.0017,"nx":28,"ny":28,"refTime":"2022-11-07T09:00:00:Z","depth":"0","parameterNumber":3,"parameterNumberName":"V-component_of_CURRENTS"},"data":[0,0,0,0,0,0,0,0,0,0,0,0,0,0,0,0,0,0,0,0,0,0,0,0,0,0,0,0,0,0,0,0,0,0,0,0,0,0,0,0,0,0,0,0,0,0,0,0,0,0,0,0,0,0,0,0,0,0,-0.0182,-0.0182,0,-0.025,-0.0251,-0.0252,-0.0303,-0.0303,-0.0304,-0.0304,-0.0406,-0.0409,-0.0411,0,0,0,0,0,0,0,0,0,0,0,0,0,-0.0069,-0.0071,-0.0182,-0.0182,-0.0183,-0.0249,-0.0251,-0.0252,-0.0303,-0.0303,-0.0304,-0.0304,-0.0406,-0.0409,-0.0412,0,0,0,0,0,0,0,0,0,0,0,0,0,-0.0128,-0.0072,-0.0182,-0.0214,-0.0218,-0.0249,-0.0251,-0.0252,-0.0303,-0.0303,-0.0304,-0.0304,-0.0405,-0.0408,-0.0412,-0.0429,0,0,-0.0424,-0.0425,0,0,0,0,0,0,0,0,-0.0125,-0.0132,-0.0209,-0.0212,-0.0216,-0.0266,-0.0248,-0.0312,-0.0303,-0.0274,-0.0304,-0.0304,-0.0361,-0.0368,-0.0383,-0.0433,-0.0438,-0.0424,-0.0426,-0.0428,-0.0429,0,0,0,0,0,0,0,-0.012,-0.013,-0.0211,-0.021,-0.0214,-0.0216,-0.0226,-0.0261,-0.0317,-0.0276,-0.0279,-0.0283,-0.0363,-0.038,-0.0386,-0.0439,-0.0424,-0.0427,-0.0429,-0.0431,-0.049,-0.0489,0,0,0,0,0,0,-0.0108,-0.0126,-0.0209,-0.0213,-0.0167,-0.0218,-0.0228,-0.0252,-0.0316,-0.0325,-0.0282,-0.0285,-0.0373,-0.0382,-0.039,-0.0402,-0.0428,-0.0431,-0.0433,-0.0491,-0.049,-0.0489,0,0,0,0,0,0,-0.0106,-0.0116,-0.0206,-0.0167,-0.0179,-0.0219,-0.0245,-0.0253,-0.0264,-0.032,-0.033,-0.0284,-0.0374,-0.0385,-0.0413,-0.0407,-0.0433,-0.0436,-0.0492,-0.049,-0.0489,-0.0433,0,0,0,0,0,0,-0.0103,-0.0115,-0.0118,-0.0167,-0.018,-0.0212,-0.0245,-0.0254,-0.0264,-0.0268,-0.0325,-0.0335,-0.0375,-0.0407,-0.0416,-0.0412,-0.0439,-0.0492,-0.0491,-0.049,-0.0436,-0.043,-0.0425,0,0,0,0,0,-0.0099,-0.0099,-0.0118,-0.0127,-0.0187,-0.0211,-0.0218,-0.0249,-0.0263,-0.0262,-0.0301,-0.0333,-0.0405,-0.0409,-0.0421,-0.0418,-0.0493,-0.0491,-0.049,-0.0438,-0.0431,-0.0425,0,0,0,0,0,0,-0.0043,-0.0106,-0.0127,-0.0145,-0.017,-0.0219,-0.0216,-0.024,-0.027,-0.0274,-0.0329,-0.0342,-0.0364,-0.0394,-0.0397,-0.0429,-0.0452,-0.0453,-0.0409,-0.0403,-0.0398,-0.0375,-0.0443,0,0,0,0,0,-0.0034,-0.0052,-0.0106,-0.0112,-0.0128,-0.017,-0.018,-0.0204,-0.024,-0.0253,-0.0296,-0.0335,-0.0368,-0.0386,-0.0421,-0.0439,-0.0449,-0.0442,-0.0437,-0.0432,-0.042,-0.0428,-0.0422,-0.0484,-0.0484,-0.0484,0,0,-0.001,-0.0044,-0.0053,-0.01,-0.0125,-0.0138,-0.0178,-0.019,-0.02,-0.026,-0.0283,-0.0321,-0.0368,-0.039,-0.0402,-0.0414,-0.0418,-0.043,-0.0426,-0.0416,-0.0426,-0.042,-0.0414,-0.0483,-0.0483,-0.0483,0,0,0.0033,-0.0008,-0.0009,-0.0034,-0.0067,-0.0098,-0.0097,-0.0148,-0.0172,-0.0198,-0.0242,-0.0269,-0.0324,-0.0355,-0.0378,-0.0362,-0.039,-0.0373,-0.0331,-0.0339,-0.0334,-0.033,-0.0325,-0.0321,-0.037,-0.037,-0.037,0,0.0068,0.0047,-0.0005,-0.0013,-0.0023,-0.0076,-0.0073,-0.0107,-0.0157,-0.0169,-0.0194,-0.026,-0.0306,-0.0327,-0.0326,-0.0351,-0.0353,-0.0353,-0.0332,-0.0328,-0.0325,-0.0321,-0.0317,-0.0367,-0.0367,-0.0368,-0.0368,0,0.0101,0.0087,0.0089,0.0053,0.0038,0.0035,-0.0021,-0.0038,-0.0072,-0.0107,-0.0137,-0.0198,-0.0233,-0.0254,-0.029,-0.0288,-0.0296,-0.0325,-0.0346,-0.0315,-0.0313,-0.031,-0.0363,-0.0364,-0.0365,-0.0366,0,0,0.0165,0.012,0.0121,0.0118,0.007,0.0064,0.0047,0.0018,0.0022,-0.0041,-0.0037,-0.0111,-0.0143,-0.0169,-0.0217,-0.023,-0.0216,-0.0261,-0.0263,-0.0252,-0.0218,-0.0216,-0.0213,-0.024,-0.0239,-0.0239,-0.0223,0,0.0209,0.0216,0.0177,0.0193,0.019,0.0138,0.0135,0.0103,0.0067,0.0056,-0.0015,-0.0036,-0.0112,-0.012,-0.0148,-0.0196,-0.0206,-0.0216,-0.0253,-0.0254,-0.0253,-0.0209,-0.0171,-0.0154,-0.022,-0.022,-0.0219,0,0.0252,0.0249,0.0272,0.026,0.0255,0.0262,0.0256,0.0243,0.0204,0.0178,0.0137,0.0078,0.0036,-0.0025,-0.0094,-0.0095,-0.0147,-0.0187,-0.0188,-0.0202,-0.0246,-0.0199,-0.0146,-0.0259,-0.0215,-0.0215,-0.0216,0,0.0326,0.0315,0.0342,0.0335,0.0314,0.0326,0.0319,0.029,0.0299,0.0262,0.028,0.0193,0.0181,0.0091,-0.0015,-0.0049,-0.007,-0.0131,-0.0177,-0.0178,-0.016,-0.016,-0.0218,-0.0164,-0.0164,-0.0164,-0.0164,0,0.0381,0.0399,0.0383,0.0398,0.0444,0.0401,0.0452,0.0427,0.0427,0.0472,0.0356,0.039,0.0212,0.0163,0.0044,-0.0041,-0.0028,-0.015,-0.0168,-0.0139,-0.0137,-0.0248,-0.0342,-0.0164,-0.0164,-0.0164,-0.0164,0,0.0448,0.0437,0.047,0.0471,0.0482,0.0515,0.0543,0.0575,0.0565,0.0629,0.0626,0.0552,0.0491,0.0323,0.0197,0.0061,-0.0098,-0.0073,-0.0021,-0.0034,-0.0211,-0.0303,-0.0369,-0.0421,-0.0129,-0.0129,-0.0129,0,0.0476,0.0504,0.0539,0.0573,0.0577,0.0621,0.0659,0.0651,0.0696,0.0749,0.0798,0.0749,0.0752,0.0557,0.0307,0.0108,-0.0039,-0.0013,-0.0087,-0.0195,-0.0311,-0.0364,-0.0408,-0.0038,-0.0037,-0.0036,-0.0035,0,0.0535,0.0557,0.0587,0.0663,0.0713,0.0769,0.0825,0.0891,0.0914,0.0993,0.1095,0.1108,0.0914,0.0722,0.0415,0.026,-0.0092,-0.0005,-0.0129,-0.0246,-0.0294,-0.036,-0.0072,-0.0029,-0.0029,-0.003,-0.003,-0.0031,0.0586,0.0626,0.0682,0.0753,0.0819,0.0915,0.0988,0.1074,0.1201,0.133,0.1329,0.1395,0.1081,0.0673,0.0437,0.0008,-0.0031,-0.0135,-0.0234,-0.0274,-0.0335,-0.0025,-0.0003,-0.0003,-0.0004,-0.0004,-0.0004,0,0.064,0.0689,0.0761,0.0855,0.0944,0.0962,0.1097,0.1189,0.1374,0.1502,0.1603,0.1515,0.1137,0.0716,0.0126,-0.0171,-0.0282,-0.0338,-0.0412,-0.0447,-0.0167,-0.0174,-0.0173,-0.0173,-0.0172,-0.0172,-0.0172,-0.0172,0.067,0.0752,0.0788,0.0946,0.1017,0.1146,0.1234,0.1389,0.1515,0.1707,0.1766,0.1771,0.1459,0.043,-0.0262,-0.0426,-0.0621,-0.0653,-0.0779,-0.0606,-0.0594,-0.0584,-0.061,-0.07,-0.07,-0.0984,-0.0987,-0.099]}],[{"header":{"parameterUnit":"m.s-1","parameterCategory":2,"la1":30.2991,"la2":30.254,"lo1":-89.0895,"lo2":-89.0444,"dx":0.0017,"dy":0.0017,"nx":28,"ny":28,"refTime":"2022-11-07T09:00:00:Z","depth":"2","parameterNumber":2,"parameterNumberName":"U-component_of_CURRENTS"},"data":[0,0,0,0,0,0,0,0,0,0,0,0,0,0,0,0,0,0,0,0,0,0,0,0,0,0,0,0,0,0,0,0,0,0,0,0,0,0,0,0,0,0,0,0,0,0,0,0,0,0,0,0,0,0,0,0,0,0,0.2701,0.2702,0,0.2716,0.2716,0.2716,0.2754,0.2755,0.2756,0.2757,0.2768,0.2768,0.2767,0,0,0,0,0,0,0,0,0,0,0,0,0,0.2695,0.2695,0.2701,0.2702,0.2703,0.2716,0.2716,0.2716,0.2754,0.2755,0.2757,0.2758,0.2769,0.2768,0.2767,0,0,0,0,0,0,0,0,0,0,0,0,0,0.2698,0.2694,0.2701,0.2726,0.2729,0.2716,0.2716,0.2716,0.2753,0.2755,0.2757,0.2759,0.2769,0.2768,0.2766,0.2723,0,0,0.2763,0.2762,0,0,0,0,0,0,0,0,0.2698,0.2698,0.2722,0.2725,0.2728,0.2739,0.2718,0.272,0.2753,0.274,0.2758,0.276,0.276,0.2759,0.2752,0.2723,0.2724,0.2763,0.2762,0.2761,0.2761,0,0,0,0,0,0,0,0.2698,0.2698,0.2703,0.2723,0.2726,0.2733,0.2735,0.2718,0.2736,0.2741,0.2745,0.2753,0.2761,0.2753,0.2753,0.2724,0.2763,0.2762,0.2761,0.276,0.2804,0.2806,0,0,0,0,0,0,0.2703,0.2697,0.2703,0.2704,0.2722,0.2732,0.2735,0.273,0.2736,0.274,0.2751,0.2754,0.2754,0.2754,0.2753,0.2812,0.2761,0.276,0.2759,0.2802,0.2805,0.2807,0,0,0,0,0,0,0.2703,0.2703,0.2702,0.2705,0.2706,0.2731,0.2725,0.2729,0.2757,0.2745,0.2748,0.278,0.2756,0.2755,0.2779,0.2809,0.276,0.2758,0.28,0.2803,0.2806,0.2859,0,0,0,0,0,0,0.2702,0.2702,0.2705,0.2705,0.2707,0.2729,0.2724,0.2729,0.2759,0.2765,0.277,0.2771,0.2757,0.2781,0.2778,0.2806,0.2758,0.2798,0.2802,0.2805,0.2855,0.2863,0.287,0,0,0,0,0,0.2701,0.2702,0.2705,0.2706,0.2708,0.2731,0.2733,0.2753,0.276,0.2782,0.2788,0.2772,0.2802,0.2781,0.2777,0.2806,0.2796,0.28,0.2805,0.2851,0.2861,0.287,0,0,0,0,0,0,0.2697,0.2706,0.2709,0.2711,0.2736,0.274,0.2753,0.2769,0.2787,0.2791,0.2783,0.2785,0.2824,0.2807,0.2784,0.2833,0.2801,0.2805,0.2838,0.2848,0.2855,0.2866,0.2756,0,0,0,0,0,0.2696,0.2705,0.2717,0.2724,0.2732,0.2746,0.2758,0.2775,0.2789,0.28,0.2801,0.2809,0.283,0.2835,0.2843,0.2851,0.2853,0.2874,0.2882,0.2889,0.2898,0.2926,0.2937,0.2821,0.2821,0.2821,0,0,0.2699,0.2704,0.2711,0.2726,0.2735,0.2754,0.2758,0.2785,0.2805,0.2794,0.2817,0.2837,0.2843,0.287,0.2885,0.2861,0.2925,0.2894,0.2899,0.2905,0.2932,0.2943,0.2953,0.2824,0.2823,0.2823,0,0,0.2707,0.2709,0.2719,0.2741,0.2767,0.2775,0.2793,0.281,0.2825,0.2851,0.2861,0.2901,0.2908,0.2925,0.2934,0.2988,0.2974,0.2998,0.3032,0.306,0.3069,0.3078,0.31,0.311,0.2991,0.2992,0.2992,0,0.271,0.2713,0.273,0.2747,0.276,0.279,0.2805,0.2824,0.2852,0.2872,0.2873,0.2934,0.2936,0.2987,0.3014,0.3005,0.3018,0.2991,0.3069,0.3077,0.3085,0.3105,0.3115,0.2995,0.2994,0.2994,0.2994,0,0.2718,0.2733,0.2741,0.2766,0.279,0.2809,0.2837,0.2873,0.2893,0.2915,0.298,0.2992,0.3031,0.3048,0.3045,0.3109,0.3102,0.3081,0.304,0.3099,0.3118,0.3127,0.2999,0.2998,0.2997,0.2996,0,0,0.2692,0.2734,0.2741,0.2754,0.2796,0.2815,0.2861,0.2906,0.2946,0.2989,0.3032,0.309,0.3111,0.3125,0.3134,0.3163,0.3227,0.3149,0.3149,0.3163,0.3294,0.3215,0.3217,0.3222,0.3223,0.3225,0.3287,0,0.2689,0.2713,0.2739,0.2775,0.2784,0.2835,0.2876,0.2934,0.2974,0.3026,0.3075,0.3123,0.3133,0.3161,0.3194,0.323,0.3255,0.3212,0.3242,0.3243,0.3158,0.3226,0.2964,0.2991,0.3296,0.3298,0.3299,0,0.2678,0.2696,0.2716,0.2772,0.2782,0.2818,0.2891,0.2929,0.3021,0.3064,0.3135,0.3166,0.3245,0.3221,0.3317,0.3294,0.33,0.3316,0.3318,0.3232,0.3181,0.2982,0.2996,0.3314,0.3313,0.3312,0.3311,0,0.2631,0.268,0.269,0.2707,0.2778,0.2813,0.2855,0.2946,0.2989,0.3085,0.3145,0.3226,0.3278,0.3319,0.3366,0.3348,0.3449,0.3416,0.335,0.3344,0.3119,0.309,0.346,0.346,0.346,0.346,0.346,0,0.2597,0.2615,0.2675,0.2685,0.2725,0.2781,0.2839,0.291,0.3003,0.3055,0.3153,0.3212,0.3308,0.3371,0.3388,0.3412,0.3468,0.3375,0.3361,0.3131,0.3104,0.3377,0.3366,0.3462,0.3462,0.3461,0.3461,0,0.2544,0.2579,0.2599,0.267,0.27,0.2726,0.2828,0.2862,0.2983,0.3053,0.3091,0.3232,0.3321,0.3396,0.3466,0.3441,0.3464,0.3443,0.3171,0.3123,0.3333,0.3325,0.3384,0.3382,0.338,0.3378,0.3377,0,0.2516,0.2519,0.2579,0.2589,0.2621,0.2679,0.2713,0.2835,0.2871,0.3049,0.3063,0.3203,0.3256,0.336,0.3345,0.3364,0.3431,0.3118,0.3028,0.3348,0.3329,0.3323,0.3318,0.2756,0.2749,0.2744,0.274,0,0.2465,0.2485,0.2502,0.2523,0.255,0.2585,0.2643,0.268,0.2808,0.2885,0.2971,0.3035,0.3146,0.3053,0.3102,0.3072,0.3098,0.3014,0.3422,0.2817,0.2761,0.274,0.2754,0.2695,0.2699,0.2703,0.2705,0.2707,0.2429,0.2419,0.2436,0.2443,0.2467,0.2469,0.2458,0.252,0.2569,0.2637,0.2776,0.2785,0.2835,0.2773,0.2698,0.265,0.2863,0.2729,0.2743,0.2763,0.268,0.2624,0.2517,0.252,0.2523,0.2526,0.2528,0,0.2362,0.2353,0.2354,0.2342,0.2305,0.2367,0.2383,0.2338,0.2324,0.2417,0.2465,0.2296,0.2253,0.2307,0.2164,0.2175,0.2134,0.2083,0.2002,0.205,0.2092,0.1972,0.1623,0.162,0.1617,0.1615,0,0,0.2326,0.2283,0.2267,0.218,0.217,0.2093,0.2073,0.2029,0.205,0.201,0.1992,0.2161,0.2244,0.1901,0.1866,0.1716,0.1864,0.1648,0.2379,0.2333,0.2371,0.248,0.2353,0,0,0,0,0]},{"header":{"parameterUnit":"m.s-1","parameterCategory":2,"la1":30.2991,"la2":30.254,"lo1":-89.0895,"lo2":-89.0444,"dx":0.0017,"dy":0.0017,"nx":28,"ny":28,"refTime":"2022-11-07T09:00:00:Z","depth":"2","parameterNumber":3,"parameterNumberName":"V-component_of_CURRENTS"},"data":[0,0,0,0,0,0,0,0,0,0,0,0,0,0,0,0,0,0,0,0,0,0,0,0,0,0,0,0,0,0,0,0,0,0,0,0,0,0,0,0,0,0,0,0,0,0,0,0,0,0,0,0,0,0,0,0,0,0,0.028,0.028,0,0.0224,0.0224,0.0223,0.0179,0.0178,0.0178,0.0178,0.0107,0.0105,0.0104,0,0,0,0,0,0,0,0,0,0,0,0,0,0.0309,0.0309,0.028,0.0279,0.0279,0.0224,0.0224,0.0223,0.0179,0.0178,0.0178,0.0177,0.0107,0.0106,0.0104,0,0,0,0,0,0,0,0,0,0,0,0,0,0.028,0.0309,0.028,0.025,0.0247,0.0224,0.0223,0.0223,0.0179,0.0178,0.0178,0.0177,0.0108,0.0106,0.0104,0.0105,0,0,0.0097,0.0096,0,0,0,0,0,0,0,0,0.0282,0.0279,0.0255,0.0252,0.0248,0.0207,0.0208,0.0182,0.0179,0.0205,0.0178,0.0177,0.0139,0.0134,0.0127,0.0101,0.0098,0.0097,0.0096,0.0095,0.0094,0,0,0,0,0,0,0,0.0284,0.0281,0.0259,0.0254,0.025,0.0225,0.0221,0.0203,0.0177,0.0203,0.02,0.0193,0.0137,0.0129,0.0124,0.0097,0.0097,0.0095,0.0094,0.0093,0.0043,0.0043,0,0,0,0,0,0,0.0293,0.0283,0.026,0.0257,0.0263,0.0226,0.022,0.0222,0.0178,0.017,0.0193,0.0191,0.0133,0.0127,0.0122,0.0117,0.0095,0.0093,0.0091,0.0043,0.0043,0.0043,0,0,0,0,0,0,0.0294,0.0292,0.0263,0.0268,0.0262,0.0226,0.0227,0.0221,0.0209,0.017,0.0162,0.0188,0.0132,0.0125,0.0103,0.0114,0.0092,0.009,0.0044,0.0043,0.0043,0.0109,0,0,0,0,0,0,0.0295,0.0293,0.0301,0.0269,0.0262,0.0254,0.0228,0.022,0.0206,0.0202,0.0163,0.0156,0.0131,0.0107,0.0101,0.011,0.0088,0.0044,0.0043,0.0043,0.0106,0.0111,0.0114,0,0,0,0,0,0.0296,0.031,0.0302,0.0299,0.0273,0.0254,0.0249,0.022,0.0206,0.0206,0.0176,0.0157,0.0102,0.0105,0.0099,0.0107,0.0044,0.0044,0.0043,0.0105,0.011,0.0114,0,0,0,0,0,0,0.0324,0.0306,0.0296,0.0303,0.0282,0.0247,0.0247,0.0224,0.0201,0.0196,0.0159,0.015,0.0132,0.011,0.0114,0.0091,0.0069,0.0067,0.0118,0.0122,0.0126,0.0148,0.0086,0,0,0,0,0,0.0336,0.0342,0.0315,0.032,0.0315,0.0282,0.0272,0.0249,0.0222,0.0211,0.0188,0.0157,0.0128,0.0118,0.0091,0.0084,0.006,0.0083,0.0087,0.0091,0.0103,0.0069,0.0072,0.0043,0.0043,0.0043,0,0,0.0346,0.0338,0.034,0.0326,0.0311,0.031,0.0275,0.0261,0.0261,0.0208,0.0208,0.017,0.0127,0.0115,0.0106,0.0099,0.0085,0.0091,0.0094,0.0105,0.007,0.0072,0.0075,0.0043,0.0043,0.0043,0,0,0.0369,0.0366,0.0379,0.037,0.035,0.033,0.0329,0.0299,0.029,0.0277,0.0237,0.0207,0.0175,0.0147,0.0127,0.0137,0.0104,0.0126,0.0171,0.0138,0.0141,0.0143,0.0117,0.0116,0.0133,0.0133,0.0133,0,0.0381,0.0399,0.0378,0.0389,0.039,0.0344,0.0357,0.0342,0.0308,0.0312,0.0286,0.023,0.0191,0.0172,0.0172,0.0149,0.0126,0.0159,0.0145,0.0147,0.0147,0.012,0.0118,0.0136,0.0136,0.0135,0.0135,0,0.0416,0.043,0.0438,0.0442,0.0437,0.0441,0.0417,0.0413,0.0393,0.0378,0.0357,0.0297,0.0267,0.0243,0.021,0.0198,0.0178,0.0152,0.0139,0.0155,0.0124,0.0121,0.014,0.0139,0.0138,0.0138,0,0,0.0445,0.0461,0.0465,0.0484,0.047,0.0472,0.0477,0.0477,0.0491,0.0449,0.0462,0.0397,0.0365,0.0338,0.0286,0.0253,0.0231,0.0213,0.0209,0.0198,0.0165,0.0146,0.014,0.0203,0.0203,0.0203,0.0143,0,0.0481,0.0522,0.0516,0.0553,0.0575,0.055,0.0564,0.0555,0.0541,0.0544,0.0481,0.0465,0.0401,0.038,0.034,0.0256,0.0226,0.025,0.0142,0.014,0.0129,0.0137,0.0165,0.0113,0.014,0.0139,0.0139,0,0.0523,0.0547,0.0595,0.0626,0.0634,0.0648,0.0671,0.0677,0.0664,0.0652,0.062,0.0569,0.0514,0.0453,0.0335,0.0354,0.0272,0.0204,0.0199,0.0159,0.0115,0.0099,0.0106,0.0133,0.0134,0.0134,0.0134,0,0.0569,0.0606,0.0652,0.0663,0.0684,0.0708,0.0718,0.0718,0.0743,0.0722,0.073,0.0651,0.0616,0.0502,0.036,0.0348,0.0229,0.0193,0.0101,0.0098,0.009,0.0087,0.0117,0.0117,0.0117,0.0117,0.0118,0,0.0618,0.0655,0.0683,0.0712,0.0772,0.0766,0.0827,0.0821,0.0833,0.0877,0.0794,0.0796,0.0627,0.0537,0.0397,0.0245,0.0257,0.0116,0.0083,0.0113,0.0113,0.0103,0.0102,0.0115,0.0116,0.0116,0.0116,0,0.0661,0.0679,0.0737,0.0779,0.0799,0.0843,0.0902,0.0942,0.0939,0.0988,0.0985,0.0909,0.0791,0.0617,0.0431,0.0303,0.0148,0.0092,0.0141,0.0115,0.0031,0.0034,-0.0014,-0.0015,-0.0016,-0.0016,-0.0017,0,0.0685,0.0722,0.0793,0.0834,0.0859,0.0924,0.0973,0.0995,0.1044,0.1063,0.1093,0.0999,0.0949,0.067,0.0425,0.0186,0.0147,0.0049,0.0026,0.0045,0.0018,0.0023,0.0027,0.0038,0.0038,0.0038,0.0038,0,0.0729,0.0759,0.0807,0.0895,0.096,0.1036,0.1109,0.1167,0.1202,0.1239,0.1265,0.1225,0.0977,0.0736,0.0409,0.0248,0.0086,0.0039,0.0047,0.0069,0.0089,0.0064,0.0068,0.0037,0.0037,0.0037,0.0037,0.0037,0.0762,0.0804,0.0873,0.0956,0.1034,0.1132,0.1205,0.1281,0.1368,0.1421,0.139,0.1327,0.1066,0.0643,0.0369,0.0079,0.009,-0.002,-0.0018,-0.0015,0.0003,0.002,-0.0041,-0.0041,-0.0042,-0.0042,-0.0042,0,0.0793,0.0846,0.0925,0.1025,0.1111,0.115,0.1283,0.1348,0.1453,0.1492,0.1504,0.1251,0.0989,0.0682,0.0258,0.0009,-0.0004,-0.0076,-0.0037,-0.0033,-0.0031,-0.0013,-0.0061,-0.0062,-0.0063,-0.0064,0,0,0.0811,0.0886,0.0927,0.1066,0.114,0.1259,0.1338,0.1432,0.1492,0.1522,0.1483,0.142,0.1064,0.0751,0.0418,0.0174,0.0127,0.0127,0.0172,0.0261,0.0267,0.0031,0.0067,0,0,0,0,0]}],[{"header":{"parameterUnit":"m.s-1","parameterCategory":2,"la1":30.2991,"la2":30.254,"lo1":-89.0895,"lo2":-89.0444,"dx":0.0017,"dy":0.0017,"nx":28,"ny":28,"refTime":"2022-11-07T09:00:00:Z","depth":"4","parameterNumber":2,"parameterNumberName":"U-component_of_CURRENTS"},"data":[0,0,0,0,0,0,0,0,0,0,0,0,0,0,0,0,0,0,0,0,0,0,0,0,0,0,0,0,0,0,0,0,0,0,0,0,0,0,0,0,0,0,0,0,0,0,0,0,0,0,0,0,0,0,0,0,0,0,0.1559,0.1559,0,0.1594,0.1595,0.1595,0.1643,0.1644,0.1645,0.1646,0.1715,0.1716,0.1717,0,0,0,0,0,0,0,0,0,0,0,0,0,0.1542,0.1542,0.1559,0.1559,0.156,0.1594,0.1595,0.1595,0.1642,0.1644,0.1645,0.1646,0.1715,0.1716,0.1717,0,0,0,0,0,0,0,0,0,0,0,0,0,0.1559,0.1542,0.1559,0.1589,0.1592,0.1594,0.1595,0.1595,0.1642,0.1644,0.1645,0.1647,0.1714,0.1716,0.1717,0.1696,0,0,0.1721,0.1722,0,0,0,0,0,0,0,0,0.1558,0.1559,0.1584,0.1587,0.1591,0.1617,0.1615,0.1631,0.1642,0.1621,0.1646,0.1647,0.1686,0.1689,0.169,0.17,0.1703,0.1721,0.1722,0.1723,0.1723,0,0,0,0,0,0,0,0.1557,0.1558,0.1571,0.1585,0.1589,0.1605,0.1609,0.1618,0.1644,0.1623,0.1627,0.1634,0.1688,0.1688,0.1692,0.1704,0.1721,0.1723,0.1723,0.1724,0.1825,0.1827,0,0,0,0,0,0,0.1554,0.1557,0.157,0.1572,0.158,0.1604,0.1608,0.1606,0.1643,0.1651,0.1633,0.1636,0.1685,0.169,0.1694,0.1774,0.1723,0.1724,0.1725,0.1823,0.1825,0.1827,0,0,0,0,0,0,0.1553,0.1554,0.1568,0.1568,0.1571,0.1603,0.16,0.1606,0.1645,0.165,0.1658,0.1671,0.1686,0.1692,0.1738,0.1774,0.1725,0.1726,0.1821,0.1824,0.1826,0.1869,0,0,0,0,0,0,0.1552,0.1553,0.1569,0.1567,0.1571,0.1593,0.1599,0.1605,0.1645,0.1651,0.1685,0.169,0.1688,0.1736,0.174,0.1775,0.1727,0.1819,0.1822,0.1826,0.1865,0.1873,0.1879,0,0,0,0,0,0.1551,0.1556,0.1569,0.1572,0.1585,0.1594,0.1598,0.1624,0.1646,0.1665,0.1694,0.1691,0.1761,0.1738,0.1742,0.1778,0.1817,0.1821,0.1825,0.1862,0.1871,0.1879,0,0,0,0,0,0,0.1566,0.1561,0.1576,0.1583,0.1602,0.1604,0.1627,0.1644,0.168,0.1702,0.1707,0.1714,0.1769,0.1769,0.1744,0.182,0.1792,0.1797,0.1818,0.1827,0.1834,0.1837,0.1728,0,0,0,0,0,0.1574,0.1576,0.1581,0.1597,0.1605,0.1624,0.164,0.1661,0.1683,0.1702,0.1725,0.1755,0.1781,0.1802,0.1822,0.1857,0.1863,0.1887,0.1894,0.19,0.1907,0.1949,0.196,0.1841,0.1841,0.1841,0,0,0.1587,0.1586,0.1592,0.1602,0.1618,0.1633,0.1638,0.1673,0.1699,0.1703,0.1757,0.1781,0.1797,0.184,0.1866,0.185,0.1938,0.1905,0.191,0.1914,0.1954,0.1965,0.1976,0.1844,0.1843,0.1843,0,0,0.1599,0.1613,0.1615,0.1631,0.1661,0.1669,0.1687,0.1712,0.1739,0.1782,0.1801,0.1849,0.1881,0.1904,0.1916,0.1975,0.1974,0.199,0.2027,0.2067,0.2077,0.2086,0.2106,0.2116,0.1993,0.1993,0.1993,0,0.1626,0.1621,0.1624,0.1635,0.1657,0.1688,0.1709,0.1732,0.1776,0.1803,0.1811,0.189,0.1908,0.1962,0.1988,0.199,0.2008,0.1989,0.2076,0.2084,0.2092,0.2111,0.2121,0.1995,0.1995,0.1995,0.1995,0,0.1626,0.1644,0.1651,0.167,0.1693,0.1721,0.1748,0.1791,0.183,0.1852,0.1926,0.1953,0.2003,0.202,0.2022,0.2097,0.2088,0.2078,0.2049,0.2107,0.2123,0.2133,0.1999,0.1998,0.1997,0.1997,0,0,0.163,0.1648,0.1656,0.1673,0.1719,0.1732,0.1787,0.1832,0.1878,0.1927,0.1982,0.2039,0.2072,0.209,0.211,0.2147,0.222,0.2145,0.2146,0.2156,0.2305,0.2164,0.2161,0.2229,0.2231,0.2233,0.2292,0,0.164,0.1655,0.1668,0.1709,0.172,0.1772,0.1813,0.1869,0.192,0.198,0.2026,0.2088,0.2092,0.2136,0.2174,0.2215,0.2251,0.2204,0.2256,0.2257,0.2117,0.2169,0.224,0.2299,0.2301,0.2303,0.2304,0,0.163,0.1641,0.1674,0.1721,0.1734,0.1775,0.1859,0.1905,0.1991,0.2035,0.2108,0.2145,0.2226,0.2213,0.2307,0.2281,0.2305,0.232,0.2322,0.2182,0.2134,0.2232,0.2323,0.2321,0.232,0.2319,0.2317,0,0.1604,0.1644,0.1672,0.1691,0.175,0.1796,0.1846,0.1934,0.1983,0.209,0.2143,0.2222,0.2288,0.2329,0.2376,0.2357,0.2458,0.2428,0.2316,0.2306,0.2396,0.2386,0.2489,0.2489,0.2489,0.2488,0.2488,0,0.1582,0.161,0.167,0.1684,0.1735,0.1794,0.187,0.1934,0.2034,0.2089,0.2183,0.2235,0.2328,0.2388,0.2404,0.2392,0.2486,0.233,0.2316,0.2412,0.2404,0.2403,0.2392,0.2491,0.249,0.249,0.2489,0,0.154,0.1581,0.1617,0.1691,0.1721,0.1766,0.1872,0.1917,0.2036,0.2117,0.216,0.2279,0.2355,0.2418,0.2492,0.2423,0.2426,0.2399,0.2505,0.2494,0.2236,0.2228,0.2264,0.2259,0.2255,0.2252,0.225,0,0.1512,0.1527,0.1611,0.1637,0.1679,0.1752,0.1795,0.1908,0.1955,0.2119,0.214,0.2269,0.2329,0.2313,0.2392,0.2403,0.2378,0.2355,0.2282,0.2233,0.2216,0.2213,0.221,0.2244,0.2243,0.2242,0.2241,0,0.1459,0.151,0.1538,0.1588,0.1639,0.1677,0.1752,0.1772,0.1901,0.2025,0.2066,0.2102,0.2182,0.2219,0.2256,0.2257,0.235,0.2315,0.2322,0.2253,0.2209,0.2196,0.2197,0.2228,0.223,0.2231,0.2231,0,0.1431,0.1437,0.1485,0.1515,0.1573,0.1579,0.1628,0.1669,0.1726,0.1897,0.1906,0.2038,0.2156,0.2146,0.2175,0.217,0.2129,0.2041,0.2061,0.2076,0.1987,0.1902,0.1821,0,0,0,0,0,0.1388,0.1376,0.14,0.1413,0.1466,0.1498,0.1583,0.1635,0.1756,0.1735,0.1813,0.1872,0.1914,0.1983,0.194,0.2101,0.2144,0.2041,0.2055,0.2155,0.2171,0.2083,0,0,0,0,0,0,0.1353,0.1377,0.1364,0.1322,0.1317,0.1353,0.1404,0.1487,0.1479,0.1617,0.1652,0.1755,0.183,0.1922,0.1904,0.1925,0.1893,0.2125,0.2119,0.2147,0.2161,0.2173,0.2088,0,0,0,0,0]},{"header":{"parameterUnit":"m.s-1","parameterCategory":2,"la1":30.2991,"la2":30.254,"lo1":-89.0895,"lo2":-89.0444,"dx":0.0017,"dy":0.0017,"nx":28,"ny":28,"refTime":"2022-11-07T09:00:00:Z","depth":"4","parameterNumber":3,"parameterNumberName":"V-component_of_CURRENTS"},"data":[0,0,0,0,0,0,0,0,0,0,0,0,0,0,0,0,0,0,0,0,0,0,0,0,0,0,0,0,0,0,0,0,0,0,0,0,0,0,0,0,0,0,0,0,0,0,0,0,0,0,0,0,0,0,0,0,0,0,0.0272,0.0272,0,0.0244,0.0243,0.0243,0.0232,0.0232,0.0232,0.0232,0.0204,0.0203,0.0202,0,0,0,0,0,0,0,0,0,0,0,0,0,0.0277,0.0277,0.0272,0.0272,0.0271,0.0244,0.0243,0.0243,0.0232,0.0232,0.0232,0.0233,0.0204,0.0203,0.0202,0,0,0,0,0,0,0,0,0,0,0,0,0,0.0264,0.0277,0.0272,0.0263,0.0262,0.0244,0.0243,0.0243,0.0232,0.0232,0.0232,0.0233,0.0204,0.0203,0.0202,0.019,0,0,0.0198,0.0197,0,0,0,0,0,0,0,0,0.0264,0.0264,0.0265,0.0264,0.0262,0.0242,0.0234,0.0225,0.0232,0.0243,0.0232,0.0233,0.0217,0.0214,0.0208,0.0189,0.0188,0.0198,0.0197,0.0196,0.0196,0,0,0,0,0,0,0,0.0265,0.0264,0.026,0.0264,0.0263,0.0246,0.0245,0.0232,0.0229,0.0242,0.0241,0.0239,0.0216,0.0209,0.0207,0.0187,0.0198,0.0197,0.0196,0.0195,0.0164,0.0164,0,0,0,0,0,0,0.0272,0.0266,0.0261,0.0259,0.0264,0.0246,0.0245,0.0248,0.0229,0.0226,0.0239,0.0238,0.0212,0.0209,0.0206,0.0211,0.0196,0.0195,0.0194,0.0164,0.0164,0.0164,0,0,0,0,0,0,0.0272,0.0272,0.0262,0.0262,0.0259,0.0247,0.025,0.0247,0.0246,0.0226,0.0224,0.0241,0.0212,0.0208,0.0203,0.0209,0.0195,0.0193,0.0164,0.0164,0.0164,0.0208,0,0,0,0,0,0,0.0272,0.0272,0.0281,0.0262,0.026,0.0261,0.0249,0.0247,0.0244,0.0244,0.0227,0.0224,0.0211,0.0205,0.0201,0.0207,0.0192,0.0164,0.0164,0.0164,0.0207,0.021,0.0212,0,0,0,0,0,0.0273,0.0284,0.0282,0.0282,0.0271,0.0261,0.0259,0.0249,0.0244,0.0248,0.0236,0.0225,0.0201,0.0204,0.02,0.0206,0.0164,0.0164,0.0164,0.0206,0.0209,0.0212,0,0,0,0,0,0,0.029,0.0283,0.0281,0.029,0.0281,0.026,0.0265,0.0253,0.0246,0.0247,0.0227,0.0224,0.0221,0.0204,0.0207,0.0194,0.018,0.0179,0.0213,0.0216,0.0219,0.0235,0.0191,0,0,0,0,0,0.0298,0.0306,0.0293,0.0301,0.0301,0.0283,0.028,0.027,0.0258,0.0255,0.0244,0.0229,0.0215,0.021,0.0197,0.0191,0.0167,0.019,0.0193,0.0195,0.0205,0.0168,0.0169,0.0164,0.0164,0.0164,0,0,0.0306,0.0304,0.0309,0.0305,0.03,0.0303,0.0282,0.0279,0.0282,0.0253,0.0259,0.024,0.0216,0.0211,0.0208,0.02,0.0183,0.0195,0.0198,0.0206,0.0168,0.0169,0.0169,0.0163,0.0163,0.0164,0,0,0.0324,0.0327,0.034,0.0337,0.0331,0.032,0.0321,0.0306,0.0304,0.0302,0.028,0.0265,0.0251,0.0232,0.0221,0.0228,0.0199,0.0222,0.025,0.0215,0.0215,0.0215,0.0183,0.018,0.0223,0.0223,0.0223,0,0.0334,0.035,0.0341,0.0351,0.0357,0.0331,0.0345,0.0335,0.0319,0.0322,0.0312,0.0283,0.026,0.0249,0.0251,0.0235,0.0212,0.0243,0.0219,0.0219,0.0218,0.0185,0.0181,0.0225,0.0225,0.0225,0.0224,0,0.0359,0.0375,0.0383,0.0391,0.0393,0.04,0.0388,0.0389,0.0381,0.0369,0.0363,0.0328,0.0312,0.0296,0.0278,0.0262,0.0246,0.0228,0.0214,0.0221,0.0185,0.018,0.0228,0.0227,0.0227,0.0226,0,0,0.0377,0.0397,0.0403,0.0421,0.0418,0.0424,0.0431,0.0433,0.0445,0.0421,0.0431,0.0395,0.0375,0.0359,0.0326,0.0293,0.0261,0.0265,0.0262,0.0239,0.0186,0.0173,0.0165,0.024,0.0239,0.0239,0.0162,0,0.0402,0.0436,0.0438,0.0473,0.0492,0.0482,0.0496,0.0492,0.0484,0.0486,0.0443,0.0439,0.0398,0.0392,0.0352,0.0286,0.0251,0.0284,0.0177,0.0174,0.0167,0.016,0.0237,0.0158,0.0157,0.0156,0.0156,0,0.0431,0.0451,0.0494,0.0527,0.0537,0.0555,0.058,0.0587,0.0575,0.0569,0.0547,0.0513,0.0466,0.043,0.0321,0.0346,0.0276,0.0218,0.0213,0.0185,0.0152,0.0149,0.0146,0.0147,0.0148,0.0148,0.0149,0,0.0458,0.0494,0.0535,0.0547,0.0574,0.06,0.0616,0.0619,0.0638,0.0624,0.0628,0.0565,0.054,0.0442,0.0325,0.0324,0.02,0.018,0.0101,0.0098,0.0114,0.0115,0.0105,0.0105,0.0105,0.0105,0.0106,0,0.0486,0.052,0.0558,0.0583,0.0639,0.0645,0.07,0.0702,0.0712,0.0737,0.0679,0.0672,0.0542,0.0456,0.0342,0.0207,0.021,0.0108,0.0078,0.0134,0.0138,0.011,0.0112,0.0102,0.0103,0.0104,0.0104,0,0.0507,0.0532,0.0584,0.0633,0.0657,0.0699,0.0762,0.0793,0.0796,0.0822,0.0821,0.0752,0.0639,0.0498,0.0335,0.0237,0.0103,0.0054,0.0129,0.0104,0.0021,0.0026,-0.0039,-0.004,-0.0041,-0.0042,-0.0043,0,0.0518,0.0551,0.0627,0.0666,0.0696,0.0762,0.0807,0.0835,0.0867,0.0868,0.0878,0.079,0.0723,0.0486,0.0333,0.0113,0.008,0.0008,0.0011,0.0028,0.0006,0.0012,0.0018,-0.0044,-0.0045,-0.0045,-0.0045,0,0.0539,0.0574,0.0617,0.0701,0.0764,0.0832,0.0897,0.0927,0.0953,0.0958,0.0919,0.0801,0.0674,0.049,0.0319,0.0161,0.0052,-0.0002,-0.0001,0.0,0.0021,0.0002,0.0009,-0.0048,-0.0048,-0.0047,-0.0047,0,0.0556,0.0589,0.0653,0.0726,0.0807,0.0875,0.0911,0.0945,0.0976,0.0972,0.0958,0.082,0.0746,0.0514,0.0357,0.0199,0.0157,0.0099,0.0094,0.0095,0.0153,0.0201,0.0164,0,0,0,0,0,0.0563,0.0602,0.0669,0.0747,0.0828,0.0876,0.0957,0.0983,0.1014,0.099,0.0976,0.0855,0.0626,0.0533,0.0373,0.033,0.0125,0.0136,0.0054,-0.0066,-0.0062,-0.0019,0,0,0,0,0,0,0.0567,0.063,0.0663,0.0753,0.0806,0.0894,0.0948,0.097,0.0959,0.0965,0.0849,0.08,0.0582,0.0711,0.0363,0.0318,0.024,0.0036,0.0032,-0.0068,-0.0065,-0.0062,-0.0016,0,0,0,0,0]}]]